[[{"header":{"parameterUnit":"m.s-1","parameterCategory":1,"la1":30.2991,"la2":30.254,"lo1":-89.0895,"lo2":-89.0444,"dy":0.0017,"dx":0.0017,"nx":28,"ny":28,"refTime":"2026-02-13T03:00:00:Z","depth":0,"parameterNumber":2,"parameterNumberName":"U-component_of_WINDS"},"data":[0,0,0,0,0,0,0,0,0,0,0,0,0,0,0,0,0,0,0,0,0,0,0,0,0,0,0,0,0,0,0,0,0,0,0,0,0,0,0,0,0,0,0,0,0,0,0,0,0,0,0,0,0,0,0,0,0,0,-0.3989,-0.3988,0,-0.3912,-0.3911,-0.391,-0.3883,-0.3883,-0.3883,-0.3884,-0.3801,-0.3798,-0.3796,0,0,0,0,0,0,0,0,0,0,0,0,0,-0.411,-0.4108,-0.3989,-0.3988,-0.3987,-0.3912,-0.3911,-0.391,-0.3883,-0.3883,-0.3883,-0.3884,-0.3802,-0.3799,-0.3796,0,0,0,0,0,0,0,0,0,0,0,0,0,-0.4048,-0.4107,-0.3989,-0.3964,-0.3961,-0.3912,-0.3911,-0.391,-0.3883,-0.3883,-0.3883,-0.3884,-0.3803,-0.3799,-0.3795,-0.3764,0,0,-0.3784,-0.3782,0,0,0,0,0,0,0,0,-0.4051,-0.4043,-0.3969,-0.3966,-0.3963,-0.3908,-0.3924,-0.3861,-0.3883,-0.3912,-0.3884,-0.3884,-0.3836,-0.3829,-0.3814,-0.376,-0.3757,-0.3784,-0.3781,-0.378,-0.3779,0,0,0,0,0,0,0,-0.4056,-0.4046,-0.3958,-0.3968,-0.3964,-0.3957,-0.3948,-0.3912,-0.3872,-0.391,-0.3908,-0.3899,-0.3834,-0.3817,-0.3812,-0.3755,-0.3784,-0.3781,-0.3778,-0.3777,-0.3675,-0.3675,0,0,0,0,0,0,-0.4064,-0.405,-0.3961,-0.3956,-0.4009,-0.3954,-0.3945,-0.3925,-0.3873,-0.3865,-0.3899,-0.3898,-0.3824,-0.3816,-0.3809,-0.377,-0.378,-0.3776,-0.3774,-0.3676,-0.3675,-0.3675,0,0,0,0,0,0,-0.4067,-0.4057,-0.3964,-0.4003,-0.399,-0.3952,-0.3929,-0.3923,-0.3906,-0.3865,-0.3857,-0.3889,-0.3824,-0.3814,-0.3776,-0.3767,-0.3775,-0.3771,-0.3676,-0.3675,-0.3675,-0.3692,0,0,0,0,0,0,-0.4071,-0.4058,-0.4046,-0.4003,-0.3988,-0.3933,-0.3929,-0.3921,-0.3901,-0.3899,-0.3854,-0.3846,-0.3823,-0.3782,-0.3773,-0.3762,-0.3769,-0.3677,-0.3676,-0.3675,-0.3692,-0.3692,-0.3692,0,0,0,0,0,-0.4075,-0.4052,-0.4045,-0.4034,-0.3972,-0.3933,-0.3924,-0.3899,-0.39,-0.3887,-0.3861,-0.3848,-0.377,-0.3778,-0.3768,-0.3756,-0.3677,-0.3676,-0.3675,-0.3692,-0.3692,-0.3692,0,0,0,0,0,0,-0.4092,-0.4046,-0.4038,-0.4,-0.3971,-0.3928,-0.3911,-0.3899,-0.3868,-0.3868,-0.3837,-0.3827,-0.3792,-0.377,-0.378,-0.3724,-0.3723,-0.372,-0.374,-0.3739,-0.3739,-0.3745,-0.3765,0,0,0,0,0,-0.4092,-0.4065,-0.4025,-0.3996,-0.3982,-0.395,-0.3931,-0.3915,-0.3883,-0.387,-0.384,-0.3809,-0.3778,-0.3757,-0.3726,-0.369,-0.368,-0.3676,-0.3676,-0.3677,-0.3674,-0.3655,-0.3654,-0.3671,-0.3671,-0.3671,0,0,-0.409,-0.4062,-0.4046,-0.3999,-0.3974,-0.3946,-0.3939,-0.3909,-0.3888,-0.3864,-0.3828,-0.3806,-0.3769,-0.3733,-0.3715,-0.3713,-0.3667,-0.3675,-0.3676,-0.3673,-0.3654,-0.3653,-0.3651,-0.367,-0.367,-0.3671,0,0,-0.4074,-0.4049,-0.4023,-0.4,-0.3964,-0.3943,-0.3937,-0.3897,-0.3882,-0.3846,-0.3828,-0.3803,-0.3749,-0.3724,-0.3704,-0.3683,-0.367,-0.3673,-0.3673,-0.3655,-0.3654,-0.3652,-0.3646,-0.3644,-0.3671,-0.3671,-0.3671,0,-0.4076,-0.4034,-0.4011,-0.3983,-0.3963,-0.3944,-0.3918,-0.3895,-0.385,-0.3837,-0.3836,-0.3771,-0.3744,-0.3703,-0.3699,-0.3683,-0.3675,-0.3678,-0.3656,-0.3654,-0.3653,-0.3646,-0.3644,-0.3672,-0.3672,-0.3672,-0.3672,0,-0.4039,-0.4011,-0.3994,-0.3954,-0.3933,-0.3906,-0.3878,-0.3859,-0.3846,-0.3826,-0.379,-0.3758,-0.3721,-0.3711,-0.3696,-0.3668,-0.3668,-0.3662,-0.366,-0.3652,-0.3646,-0.3643,-0.3673,-0.3673,-0.3672,-0.3672,0,0,-0.4028,-0.3979,-0.3973,-0.3956,-0.3917,-0.3894,-0.3867,-0.3833,-0.3818,-0.3789,-0.3766,-0.3723,-0.3718,-0.3696,-0.3679,-0.3663,-0.3651,-0.3659,-0.3658,-0.3659,-0.362,-0.3625,-0.3622,-0.3643,-0.3642,-0.3642,-0.3623,0,-0.4007,-0.3959,-0.3939,-0.39,-0.3875,-0.3858,-0.3834,-0.3808,-0.3789,-0.3764,-0.3743,-0.3713,-0.3708,-0.3695,-0.368,-0.3656,-0.3642,-0.3657,-0.3621,-0.362,-0.363,-0.3619,-0.3623,-0.3607,-0.3621,-0.362,-0.362,0,-0.3974,-0.3948,-0.3908,-0.3875,-0.3863,-0.3843,-0.3812,-0.3788,-0.3759,-0.3746,-0.3724,-0.3708,-0.368,-0.3681,-0.3642,-0.3652,-0.3637,-0.3623,-0.3622,-0.3617,-0.3619,-0.3614,-0.3601,-0.3599,-0.3615,-0.3615,-0.3616,0,-0.3972,-0.3926,-0.3897,-0.3882,-0.3843,-0.3829,-0.3812,-0.3783,-0.3765,-0.3738,-0.3726,-0.3695,-0.3678,-0.3655,-0.3632,-0.3635,-0.3596,-0.3594,-0.3584,-0.3585,-0.3576,-0.3577,-0.3561,-0.3566,-0.3566,-0.3566,-0.3566,0,-0.395,-0.3926,-0.3895,-0.3877,-0.3851,-0.3828,-0.3802,-0.3784,-0.3759,-0.3737,-0.372,-0.3699,-0.3671,-0.3647,-0.3629,-0.36,-0.3592,-0.3581,-0.3577,-0.3583,-0.3584,-0.3572,-0.3572,-0.3566,-0.3566,-0.3566,-0.3566,0,-0.3942,-0.392,-0.3887,-0.3854,-0.3845,-0.3827,-0.3799,-0.3781,-0.3762,-0.3735,-0.3727,-0.3698,-0.3669,-0.3645,-0.3606,-0.3594,-0.3565,-0.3559,-0.3576,-0.3573,-0.3565,-0.3567,-0.354,-0.3536,-0.3545,-0.3545,-0.3545,0,-0.3929,-0.3911,-0.3877,-0.3862,-0.3846,-0.3821,-0.3804,-0.3782,-0.3765,-0.3732,-0.3718,-0.3689,-0.3664,-0.362,-0.3595,-0.3566,-0.3559,-0.3553,-0.3555,-0.3562,-0.356,-0.3562,-0.356,-0.3552,-0.3552,-0.3552,-0.3552,0,-0.3909,-0.39,-0.3877,-0.385,-0.3831,-0.3808,-0.3785,-0.3774,-0.3747,-0.3729,-0.3701,-0.3682,-0.3645,-0.3616,-0.3586,-0.3567,-0.3556,-0.3552,-0.3549,-0.3554,-0.3565,-0.356,-0.3576,-0.3552,-0.3552,-0.3552,-0.3552,-0.3552,-0.3898,-0.3883,-0.3857,-0.3832,-0.3813,-0.3793,-0.3776,-0.3757,-0.3733,-0.3702,-0.3691,-0.3663,-0.3636,-0.3594,-0.3576,-0.3554,-0.3552,-0.3546,-0.3545,-0.3544,-0.3545,-0.3569,-0.3548,-0.3548,-0.3548,-0.3548,-0.3548,0,-0.3878,-0.3862,-0.384,-0.381,-0.3791,-0.3784,-0.3759,-0.3743,-0.3719,-0.3696,-0.3673,-0.3642,-0.3615,-0.359,-0.3562,-0.3549,-0.3543,-0.3542,-0.3543,-0.3539,-0.3548,-0.3554,-0.3548,-0.3548,-0.3548,-0.3548,-0.3548,-0.3548,-0.3866,-0.3839,-0.3828,-0.3793,-0.3776,-0.375,-0.3737,-0.3718,-0.37,-0.3667,-0.3646,-0.363,-0.3606,-0.3577,-0.3553,-0.3546,-0.3537,-0.3538,-0.3529,-0.3538,-0.3538,-0.3538,-0.3544,-0.3536,-0.3536,-0.3522,-0.3522,-0.3522]},{"header":{"parameterUnit":"m.s-1","parameterCategory":1,"la1":30.2991,"la2":30.254,"lo1":-89.0895,"lo2":-89.0444,"dy":0.0017,"dx":0.0017,"nx":28,"ny":28,"refTime":"2026-02-13T03:00:00:Z","depth":0,"parameterNumber":3,"parameterNumberName":"V-component_of_WINDS"},"data":[0,0,0,0,0,0,0,0,0,0,0,0,0,0,0,0,0,0,0,0,0,0,0,0,0,0,0,0,0,0,0,0,0,0,0,0,0,0,0,0,0,0,0,0,0,0,0,0,0,0,0,0,0,0,0,0,0,0,1.6859,1.6859,0,1.6843,1.6843,1.6843,1.6887,1.6888,1.689,1.6891,1.6869,1.6867,1.6865,0,0,0,0,0,0,0,0,0,0,0,0,0,1.6923,1.6922,1.6859,1.6859,1.6859,1.6843,1.6843,1.6843,1.6887,1.6888,1.689,1.6892,1.6869,1.6867,1.6865,0,0,0,0,0,0,0,0,0,0,0,0,0,1.69,1.6921,1.6859,1.6879,1.6881,1.6843,1.6843,1.6843,1.6886,1.6889,1.6891,1.6893,1.687,1.6867,1.6865,1.6806,0,0,1.6856,1.6855,0,0,0,0,0,0,0,0,1.6901,1.6898,1.6876,1.6878,1.6879,1.6869,1.6858,1.683,1.6886,1.6884,1.6891,1.6894,1.6867,1.6864,1.6857,1.6804,1.6804,1.6856,1.6854,1.6853,1.6852,0,0,0,0,0,0,0,1.6903,1.6898,1.6853,1.6876,1.6878,1.6887,1.6886,1.6853,1.6864,1.6884,1.6888,1.6885,1.6868,1.6859,1.6857,1.6803,1.6856,1.6853,1.6852,1.685,1.6701,1.6699,0,0,0,0,0,0,1.6903,1.69,1.6853,1.6852,1.6896,1.6884,1.6883,1.687,1.6864,1.6866,1.6884,1.6888,1.6863,1.686,1.6856,1.6785,1.6853,1.685,1.6849,1.6703,1.67,1.6698,0,0,0,0,0,0,1.6904,1.6898,1.6854,1.6877,1.6872,1.6881,1.6866,1.6869,1.686,1.6864,1.6866,1.6873,1.6865,1.686,1.6818,1.6785,1.6849,1.6846,1.6706,1.6702,1.6699,1.6643,0,0,0,0,0,0,1.6905,1.6898,1.6877,1.6876,1.6871,1.6817,1.6864,1.6867,1.6856,1.6861,1.6854,1.6855,1.6866,1.6822,1.6815,1.6782,1.6844,1.6709,1.6704,1.67,1.6648,1.6638,1.663,0,0,0,0,0,1.6908,1.6861,1.6875,1.687,1.6844,1.6815,1.6812,1.6827,1.6853,1.6831,1.6833,1.6855,1.6791,1.6817,1.681,1.6775,1.6711,1.6706,1.6701,1.6652,1.664,1.663,0,0,0,0,0,0,1.6854,1.6861,1.6877,1.6829,1.6822,1.6823,1.6795,1.6814,1.6798,1.6803,1.6821,1.6819,1.6773,1.6771,1.68,1.6718,1.6755,1.6748,1.672,1.6709,1.67,1.67,1.6842,0,0,0,0,0,1.6838,1.6816,1.6822,1.6778,1.6774,1.6785,1.6773,1.6786,1.6778,1.6774,1.6774,1.6764,1.6741,1.6726,1.6705,1.6649,1.6647,1.6622,1.6613,1.6606,1.6598,1.6567,1.6555,1.6681,1.6681,1.6681,0,0,1.6801,1.6802,1.6787,1.6768,1.6763,1.6738,1.6782,1.6753,1.6734,1.677,1.673,1.6729,1.6719,1.667,1.6648,1.6666,1.6564,1.6599,1.6593,1.659,1.6561,1.6549,1.6538,1.6678,1.6678,1.6679,0,0,1.6722,1.6722,1.6685,1.6681,1.6675,1.6683,1.6674,1.6673,1.6674,1.6636,1.6662,1.6639,1.66,1.6591,1.6582,1.6502,1.652,1.6495,1.6446,1.6416,1.6406,1.6397,1.6366,1.6355,1.6488,1.6488,1.6488,0,1.6677,1.6642,1.6663,1.6633,1.6623,1.6657,1.6619,1.6613,1.66,1.6591,1.6613,1.6566,1.6561,1.651,1.649,1.6483,1.6471,1.6494,1.6406,1.6397,1.6389,1.636,1.6348,1.6485,1.6485,1.6486,1.6486,0,1.6585,1.6561,1.6532,1.652,1.6507,1.6473,1.6488,1.6473,1.6487,1.6493,1.6452,1.6449,1.6428,1.6418,1.6431,1.6368,1.6379,1.6403,1.644,1.6374,1.6346,1.6335,1.648,1.6481,1.6482,1.6483,0,0,1.6468,1.6471,1.646,1.6455,1.6452,1.6432,1.64,1.6381,1.6366,1.6357,1.6328,1.6296,1.6319,1.6308,1.6321,1.6295,1.6229,1.6322,1.6322,1.6302,1.6156,1.6136,1.6122,1.6243,1.6241,1.624,1.6156,0,1.6388,1.6334,1.6353,1.6296,1.6273,1.6306,1.6278,1.6272,1.6277,1.6256,1.6261,1.6237,1.627,1.6264,1.624,1.6242,1.6199,1.6249,1.6214,1.6212,1.6211,1.6108,1.6086,1.6007,1.6146,1.6144,1.6143,0,1.6286,1.6274,1.6216,1.6218,1.6208,1.6182,1.6167,1.6148,1.6142,1.6148,1.6137,1.6156,1.6122,1.6163,1.6116,1.6149,1.6136,1.6136,1.6133,1.6127,1.6171,1.6096,1.5983,1.597,1.6127,1.6128,1.6129,0,1.6203,1.6173,1.6134,1.6129,1.613,1.6111,1.611,1.6107,1.6095,1.6082,1.6073,1.6056,1.6045,1.6031,1.6044,1.6072,1.5994,1.6035,1.5995,1.5994,1.5973,1.5973,1.5852,1.5971,1.5971,1.5971,1.5972,0,1.6109,1.6071,1.6097,1.6072,1.6031,1.6054,1.6011,1.6014,1.6011,1.5987,1.6015,1.5991,1.6012,1.5989,1.6,1.5958,1.5954,1.5955,1.5957,1.595,1.595,1.5939,1.5944,1.5968,1.5969,1.5969,1.597,0,1.6007,1.6023,1.5982,1.5988,1.5989,1.5958,1.5962,1.5938,1.5947,1.5916,1.5909,1.5922,1.5897,1.591,1.5883,1.5891,1.5835,1.5847,1.5837,1.5839,1.5797,1.5799,1.5662,1.5644,1.5777,1.5776,1.5775,0,1.5944,1.5916,1.592,1.5906,1.5904,1.5883,1.5871,1.5893,1.5879,1.5872,1.5849,1.5827,1.581,1.5769,1.5774,1.5754,1.5763,1.5716,1.576,1.5753,1.5758,1.5758,1.5754,1.5706,1.5704,1.5703,1.5702,0,1.583,1.584,1.5823,1.5809,1.5795,1.5784,1.5776,1.5763,1.5785,1.5769,1.5745,1.5732,1.5707,1.5683,1.5667,1.5664,1.5685,1.5689,1.5678,1.5668,1.5663,1.5662,1.581,1.5691,1.5692,1.5693,1.5694,1.5694,1.5743,1.5719,1.5719,1.5699,1.5696,1.5688,1.5666,1.5673,1.5654,1.5636,1.5651,1.5621,1.5617,1.5597,1.5592,1.5568,1.5586,1.5571,1.5566,1.5561,1.5554,1.567,1.5565,1.5566,1.5566,1.5566,1.5566,0,1.5627,1.5629,1.5612,1.56,1.5584,1.561,1.5603,1.5587,1.5562,1.5557,1.5541,1.5513,1.5491,1.5496,1.5476,1.5456,1.5465,1.5449,1.5449,1.5448,1.554,1.555,1.5442,1.5442,1.5442,1.5442,1.5442,1.5442,1.5565,1.5526,1.5536,1.5496,1.5498,1.5471,1.5464,1.5456,1.5452,1.542,1.5403,1.5408,1.5406,1.5387,1.5367,1.537,1.5359,1.5339,1.5344,1.5429,1.5441,1.5453,1.5462,1.5338,1.5338,1.5253,1.5252,1.5252]}]]